| time (UTC) | temp C | wind direction | speed KPH | gust KPH | rain 1hr cm | rain 24hr cm | rain mn cm | humidity % | barometer mb |
| 20260510164559 | 18 | 323 | 1.6 | 4.8 | 0.00 | 0.66 | 0.00 | 64 | 1011.7 |
| 20260510163056 | 17 | 0 | 1.6 | 3.2 | 0.00 | 0.66 | 0.00 | 70 | 1011.9 |
| 20260510161556 | 17 | 0 | 0.0 | 1.6 | 0.00 | 0.66 | 0.00 | 76 | 1011.9 |
| 20260510160101 | 17 | 203 | 0.0 | 4.8 | 0.00 | 0.66 | 0.00 | 75 | 1012.0 |
| 20260510154555 | 18 | 250 | 1.6 | 6.4 | 0.00 | 0.69 | 0.00 | 73 | 1012.0 |
| 20260510153057 | 17 | 179 | 1.6 | 6.4 | 0.00 | 0.69 | 0.00 | 77 | 1012.1 |
| 20260510151559 | 17 | 259 | 1.6 | 4.8 | 0.00 | 0.69 | 0.00 | 80 | 1011.9 |
| 20260510150100 | 15 | 0 | 0.0 | 3.2 | 0.00 | 0.69 | 0.00 | 84 | 1012.1 |
| 20260510144602 | 14 | 99 | 0.0 | 3.2 | 0.00 | 0.74 | 0.00 | 85 | 1011.9 |
| 20260510143059 | 14 | 216 | 0.0 | 3.2 | 0.00 | 0.74 | 0.00 | 84 | 1011.8 |
| 20260510141604 | 14 | 0 | 0.0 | 4.8 | 0.00 | 0.74 | 0.00 | 85 | 1012.0 |
| 20260510140100 | 13 | 0 | 0.0 | 1.6 | 0.00 | 0.74 | 0.00 | 89 | 1012.0 |
| 20260510134608 | 12 | 269 | 0.0 | 1.6 | 0.00 | 0.76 | 0.00 | 89 | 1011.9 |
| 20260510133103 | 12 | 195 | 0.0 | 1.6 | 0.00 | 0.76 | 0.00 | 94 | 1011.8 |
| 20260510131608 | 10 | 0 | 0.0 | 1.6 | 0.00 | 0.76 | 0.00 | 95 | 1012.0 |
| 20260510130101 | 10 | 0 | 0.0 | 1.6 | 0.00 | 0.76 | 0.00 | 95 | 1012.0 |
| 20260510124610 | 10 | 0 | 0.0 | 0.0 | 0.00 | 0.79 | 0.00 | 95 | 1011.8 |
| 20260510123059 | 10 | 0 | 0.0 | 0.0 | 0.00 | 0.79 | 0.00 | 95 | 1011.8 |
| 20260510121555 | 9 | 0 | 0.0 | 1.6 | 0.00 | 0.79 | 0.00 | 95 | 1011.5 |
| 20260510120055 | 9 | 0 | 0.0 | 0.0 | 0.00 | 0.79 | 0.00 | 95 | 1011.7 |
| 20260510114555 | 9 | 0 | 0.0 | 0.0 | 0.00 | 0.81 | 0.00 | 95 | 1011.7 |
| 20260510113053 | 8 | 0 | 0.0 | 0.0 | 0.00 | 0.81 | 0.00 | 95 | 1011.5 |
| 20260510111553 | 8 | 0 | 0.0 | 0.0 | 0.00 | 0.81 | 0.00 | 95 | 1011.5 |
| 20260510110058 | 8 | 0 | 0.0 | 1.6 | 0.00 | 0.81 | 0.00 | 95 | 1011.5 |
| 20260510104554 | 8 | 0 | 0.0 | 1.6 | 0.00 | 0.99 | 0.00 | 95 | 1011.2 |
| 20260510103100 | 8 | 0 | 0.0 | 1.6 | 0.00 | 0.99 | 0.00 | 95 | 1011.1 |
| 20260510101606 | 8 | 252 | 0.0 | 1.6 | 0.00 | 0.99 | 0.00 | 95 | 1011.1 |
| 20260510100057 | 8 | 245 | 0.0 | 3.2 | 0.00 | 0.99 | 0.00 | 95 | 1010.6 |
| 20260510094556 | 8 | 242 | 0.0 | 3.2 | 0.00 | 1.14 | 0.00 | 95 | 1010.3 |
| 20260510093055 | 8 | 240 | 0.0 | 1.6 | 0.00 | 1.14 | 0.00 | 95 | 1010.0 |
| 20260510091554 | 8 | 248 | 0.0 | 1.6 | 0.00 | 1.14 | 0.00 | 95 | 1010.3 |
| 20260510090055 | 8 | 0 | 0.0 | 1.6 | 0.00 | 1.14 | 0.00 | 95 | 1010.5 |
| 20260510084555 | 8 | 0 | 0.0 | 0.0 | 0.00 | 1.32 | 0.00 | 95 | 1010.6 |
| 20260510083054 | 8 | 0 | 0.0 | 0.0 | 0.00 | 1.32 | 0.00 | 95 | 1010.9 |
| 20260510081558 | 8 | 0 | 0.0 | 0.0 | 0.00 | 1.32 | 0.00 | 95 | 1010.8 |
| 20260510080055 | 8 | 248 | 0.0 | 1.6 | 0.00 | 1.32 | 0.00 | 95 | 1010.8 |
| 20260510074556 | 8 | 0 | 0.0 | 1.6 | 0.00 | 1.32 | 0.00 | 95 | 1011.0 |
| 20260510073105 | 8 | 0 | 0.0 | 1.6 | 0.00 | 1.32 | 0.00 | 95 | 1010.8 |
| 20260510071558 | 8 | 0 | 0.0 | 1.6 | 0.00 | 1.32 | 0.00 | 95 | 1010.7 |
| 20260510070054 | 8 | 0 | 0.0 | 1.6 | 0.00 | 1.32 | 0.00 | 95 | 1010.5 |
| 20260510064557 | 8 | 0 | 0.0 | 3.2 | 0.00 | 1.32 | 0.00 | 95 | 1010.6 |
| 20260510063058 | 8 | 240 | 0.0 | 1.6 | 0.00 | 1.32 | 0.00 | 95 | 1010.5 |
| 20260510061605 | 8 | 0 | 0.0 | 0.0 | 0.00 | 1.32 | 0.00 | 95 | 1010.5 |
| 20260510060059 | 8 | 0 | 0.0 | 0.0 | 0.00 | 1.32 | 0.00 | 95 | 1010.2 |
| 20260510054606 | 8 | 0 | 0.0 | 1.6 | 0.00 | 1.32 | 0.00 | 95 | 1010.1 |
| 20260510053055 | 8 | 0 | 0.0 | 1.6 | 0.00 | 1.32 | 0.00 | 95 | 1010.2 |
| 20260510051601 | 7 | 0 | 0.0 | 0.0 | 0.00 | 1.32 | 0.00 | 95 | 1010.4 |
| 20260510050057 | 7 | 0 | 0.0 | 0.0 | 0.00 | 1.32 | 0.00 | 94 | 1010.6 |
| 20260510044556 | 7 | 0 | 0.0 | 1.6 | 0.00 | 1.32 | 0.00 | 94 | 1010.6 |
| 20260510043056 | 8 | 0 | 0.0 | 0.0 | 0.00 | 1.32 | 0.00 | 94 | 1010.3 |
| 20260510041629 | 8 | 0 | 0.0 | 1.6 | 0.00 | 1.32 | 0.00 | 95 | 1010.5 |
| 20260510040100 | 8 | 0 | 0.0 | 0.0 | 0.00 | 1.32 | 0.00 | 95 | 1010.5 |
| 20260510034559 | 8 | 0 | 0.0 | 0.0 | 0.00 | 1.32 | 1.32 | 95 | 1010.7 |
| 20260510033106 | 8 | 0 | 0.0 | 0.0 | 0.00 | 1.32 | 1.32 | 95 | 1010.6 |
| 20260510031556 | 9 | 0 | 0.0 | 1.6 | 0.00 | 1.32 | 1.32 | 95 | 1010.7 |
| 20260510030055 | 9 | 0 | 0.0 | 1.6 | 0.00 | 1.32 | 1.32 | 95 | 1010.8 |
| 20260510024609 | 9 | 0 | 0.0 | 1.6 | 0.00 | 1.32 | 1.32 | 95 | 1010.7 |
| 20260510023059 | 9 | 207 | 0.0 | 1.6 | 0.00 | 1.32 | 1.32 | 95 | 1010.6 |
| 20260510021555 | 9 | 243 | 0.0 | 1.6 | 0.00 | 1.32 | 1.32 | 95 | 1010.4 |
| 20260510020054 | 9 | 0 | 0.0 | 1.6 | 0.00 | 1.32 | 1.32 | 94 | 1010.2 |
| 20260510014615 | 9 | 0 | 0.0 | 1.6 | 0.00 | 1.32 | 1.32 | 94 | 1010.8 |
| 20260510013104 | 9 | 0 | 0.0 | 1.6 | 0.00 | 1.32 | 1.32 | 94 | 1011.0 |
| 20260510011553 | 9 | 0 | 0.0 | 3.2 | 0.00 | 1.32 | 1.32 | 94 | 1010.9 |
| 20260510010054 | 9 | 241 | 0.0 | 1.6 | 0.00 | 1.32 | 1.32 | 94 | 1010.6 |
| 20260510004603 | 9 | 0 | 0.0 | 3.2 | 0.00 | 1.32 | 1.32 | 94 | 1010.1 |
| 20260510003055 | 9 | 0 | 0.0 | 1.6 | 0.00 | 1.32 | 1.32 | 94 | 1010.0 |
| 20260510001556 | 9 | 330 | 0.0 | 1.6 | 0.00 | 1.32 | 1.32 | 94 | 1009.7 |
| 20260510000056 | 9 | 226 | 0.0 | 1.6 | 0.00 | 1.32 | 1.32 | 94 | 1009.6 |
| 20260509234556 | 9 | 0 | 0.0 | 1.6 | 0.00 | 1.32 | 1.32 | 94 | 1009.6 |
| 20260509233056 | 9 | 231 | 0.0 | 1.6 | 0.00 | 1.32 | 1.32 | 94 | 1009.7 |
| 20260509231607 | 9 | 0 | 0.0 | 1.6 | 0.00 | 1.32 | 1.32 | 94 | 1009.7 |
| 20260509230058 | 9 | 209 | 0.0 | 1.6 | 0.03 | 1.32 | 1.32 | 94 | 1009.7 |
| 20260509224601 | 9 | 236 | 0.0 | 1.6 | 0.08 | 1.32 | 1.32 | 94 | 1009.9 |
| 20260509223103 | 9 | 0 | 0.0 | 3.2 | 0.13 | 1.32 | 1.32 | 94 | 1009.7 |
| 20260509221558 | 9 | 245 | 0.0 | 3.2 | 0.18 | 1.32 | 1.32 | 93 | 1009.8 |
| 20260509220058 | 9 | 172 | 0.0 | 1.6 | 0.18 | 1.32 | 1.32 | 93 | 1009.8 |
| 20260509214557 | 9 | 0 | 0.0 | 3.2 | 0.15 | 1.27 | 1.27 | 93 | 1009.9 |
| 20260509213057 | 9 | 245 | 0.0 | 4.8 | 0.13 | 1.22 | 1.22 | 93 | 1009.8 |
| 20260509211601 | 9 | 0 | 0.0 | 1.6 | 0.13 | 1.17 | 1.17 | 93 | 1009.9 |
| 20260509210106 | 10 | 0 | 0.0 | 3.2 | 0.18 | 1.14 | 1.14 | 93 | 1010.2 |
| 20260509204552 | 10 | 0 | 0.0 | 3.2 | 0.20 | 1.12 | 1.12 | 93 | 1010.4 |
| 20260509203053 | 10 | 284 | 0.0 | 3.2 | 0.20 | 1.09 | 1.09 | 93 | 1010.6 |
| 20260509201556 | 10 | 0 | 0.0 | 0.0 | 0.20 | 1.04 | 1.04 | 93 | 1010.7 |
| 20260509200056 | 10 | 0 | 0.0 | 1.6 | 0.15 | 0.97 | 0.97 | 93 | 1010.9 |
| 20260509194553 | 10 | 0 | 0.0 | 1.6 | 0.13 | 0.91 | 0.91 | 93 | 1010.8 |
| 20260509193054 | 10 | 0 | 0.0 | 3.2 | 0.13 | 0.89 | 0.89 | 93 | 1011.0 |
| 20260509191554 | 10 | 0 | 0.0 | 1.6 | 0.10 | 0.84 | 0.84 | 93 | 1010.9 |
| 20260509190055 | 10 | 0 | 0.0 | 0.0 | 0.08 | 0.81 | 0.81 | 92 | 1010.8 |
| 20260509184553 | 10 | 0 | 0.0 | 1.6 | 0.05 | 0.79 | 0.79 | 92 | 1010.9 |
| 20260509183055 | 10 | 0 | 0.0 | 1.6 | 0.03 | 0.76 | 0.76 | 92 | 1011.0 |
| 20260509181554 | 9 | 0 | 0.0 | 1.6 | 0.00 | 0.74 | 0.74 | 92 | 1010.8 |
| 20260509180055 | 9 | 243 | 0.0 | 1.6 | 0.00 | 0.74 | 0.74 | 91 | 1010.9 |
| 20260509174553 | 9 | 131 | 0.0 | 1.6 | 0.03 | 0.74 | 0.74 | 92 | 1011.1 |
| 20260509173118 | 9 | 0 | 0.0 | 1.6 | 0.03 | 0.74 | 0.74 | 92 | 1011.1 |
| 20260509171602 | 8 | 244 | 0.0 | 1.6 | 0.05 | 0.74 | 0.74 | 92 | 1011.4 |
| 20260509170119 | 8 | 0 | 0.0 | 0.0 | 0.05 | 0.74 | 0.74 | 92 | 1011.4 |